Location: Canyon City
(32.5951°N, 116.5278°W)
Time: 22:05:25
(UTC+00:00)

OAO 3 Rocket - Pass Details

Date: 07 December 2024
Orbit: 618 x 666 km, 35.0° (Epoch: 19 January)

Event Time Altitude Azimuth Distance (km) Brightness Sun altitude
Exits shadow 13:28:55 14° 251° (WSW) 1,738 4.9 -13.8°
Maximum altitude 13:32:53 83° 166° (SSE) 635 3.1 -13.0°
Drops below altitude 10° 13:37:30 10° 76° (ENE) 1,987 6.6 -12.1°
Sets 13:39:50 0° 76° (ENE) 2,888 7.5 -11.6°
